CW3742 Weather Reports


time (UTC)temp
C
wind
direction
speed
KPH
gust
KPH
rain 1hr
cm
rain 24hr
cm
rain mn
cm
humidity
%
barometer
mb
20260504050016 15 0 8.0 14.5 0.00 0.00 0.00 58 1006.0
20260504043016 15 0 14.5 16.1 0.00 0.00 0.00 58 1006.3
20260504040016 15 0 12.9 17.7 0.00 0.00 0.00 57 1006.6
20260504033016 16 0 12.9 17.7 0.00 0.00 0.00 56 1006.6
20260504030017 16 0 14.5 19.3 0.00 0.00 0.00 54 1006.6
20260504023016 16 0 14.5 20.9 0.00 0.00 0.00 53 1006.5
20260504020016 17 0 16.1 20.9 0.00 0.00 0.00 51 1006.4
20260504013016 18 0 14.5 19.3 0.00 0.00 0.00 49 1006.3
20260504010017 18 0 16.1 24.1 0.00 0.00 0.00 47 1006.3
20260504003037 20 0 17.7 25.7 0.00 0.00 0.00 43 1006.4
20260504000016 21 0 17.7 24.1 0.00 0.00 0.00 42 1006.3
20260503233017 21 0 22.5 33.8 0.00 0.00 0.00 40 1006.3
20260503230017 22 0 25.7 40.2 0.00 0.00 0.00 38 1006.4
20260503223017 22 0 29.0 41.8 0.00 0.00 0.00 38 1006.5
20260503220037 22 0 27.4 45.1 0.00 0.00 0.00 40 1006.5
20260503213016 22 0 29.0 43.5 0.00 0.00 0.00 41 1006.8
20260503210017 22 0 29.0 48.3 0.00 0.00 0.00 41 1007.0
20260503203017 20 0 30.6 45.1 0.00 0.00 0.00 47 1007.4
20260503200017 20 0 33.8 48.3 0.00 0.00 0.00 49 1007.8
20260503193017 20 0 30.6 51.5 0.00 0.00 0.00 46 1008.1
20260503190017 18 0 38.6 53.1 0.00 0.00 0.00 47 1008.0
20260503183017 20 0 38.6 53.1 0.00 0.00 0.00 46 1007.9
20260503180016 18 0 38.6 53.1 0.00 0.00 0.00 47 1008.4
20260503173017 18 0 37.0 57.9 0.00 0.00 0.00 46 1008.8